Weather Roundup
Issued by NWS

Home | Current Version | Previous Version | Graphics & Text | Print | Product List | Glossary Off
Versions: 1 2 3 4 5 6 7 8 9 10 11 12 13 14 15 16 17 18 19 20 21 22 23 24 25 26 27 28 29 30 31 32 33 34 35 36 37 38 39 40 41 42 43 44 45 46 47 48 49 50

079
NZUS93 KARX 300759
HRRWXR

CURRENT HOURLY OBSERVATIONS ACROSS
MUCH OF THE UPPER MISSISSIPPI VALLEY
NATIONAL WEATHER SERVICE LA CROSSE WI
300 AM CDT SAT APR 30 2016


...SOUTHEAST MINNESOTA...


CITY           SKY/WX    TMP DP  RH WIND       PRES   REMARKS
ROCHESTER      CLOUDY    41  38  89 NE8       30.06F
ROCHESTER/MAYO FAIR      44  38  81 NE7       30.07F
WINONA         CLOUDY    41  37  87 CALM      30.11S
AUSTIN         CLOUDY    43  37  81 NE7       30.04F
ALBERT LEA     NOT AVBL
DODGE CENTER   CLOUDY    39  37  93 NE8       30.06F WCI  34
PRESTON        CLOUDY    40  37  86 NE7       30.06F
OWATONNA       CLOUDY    43  37  81 E6        30.07F
FARIBAULT      NOT AVBL
$$

...ELSEWHERE IN MINNESOTA...


CITY           SKY/WX    TMP DP  RH WIND       PRES   REMARKS
MINNEAPOLIS    CLOUDY    46  32  58 NE10      30.10F
INTNL FALLS    CLEAR     31  27  85 E3        30.26S
DULUTH         CLEAR     36  28  73 E10       30.21S WCI  28
RED WING       CLOUDY    45  37  76 CALM      30.09F
REDWOOD FALLS  MOCLDY    42  38  85 E6        30.08F
MANKATO        CLOUDY    45  37  76 NE7       30.07F
WORTHINGTON    CLOUDY    41  38  89 NE13      30.01F
FAIRMONT       CLOUDY    43  30  61 NE9       30.03F
$$

...SOUTHWEST WISCONSIN...


CITY           SKY/WX    TMP DP  RH WIND       PRES   REMARKS
LA CROSSE      CLOUDY    42  38  85 E5        30.10F
PRAIRIE DU CHI CLOUDY    40  37  90 CALM      30.07F
BOSCOBEL       PTCLDY    41  38  89 NE3       30.09F
LONE ROCK      CLOUDY    42  37  82 E7        30.09F
PLATTEVILLE    CLOUDY    41  39  95 NE10      30.06F
FORT MC COY    CLOUDY    33  32  98 CALM      30.11F
MAUSTON-NEW LI NOT AVBL
VIROQUA        FAIR      40  36  88 E7        30.07F WCI  35
WIS DELLS      CLOUDY    42  36  80 E7        30.10F
$$

...ELSEWHERE IN WISCONSIN...


CITY           SKY/WX    TMP DP  RH WIND       PRES   REMARKS
MILWAUKEE      CLOUDY    42  34  73 NE8       30.12F
MADISON        CLOUDY    42  36  79 E8        30.09F
GREEN BAY      PTCLDY    38  32  79 NE7       30.15F WCI  33
EAU CLAIRE     NOT AVBL
BLACK RVR FLS    N/A     33  33 100 CALM      30.12S FOG
MEDFORD        CLOUDY    35  33  92 E7        30.14F WCI  29
WAUSAU         CLOUDY    42  30  62 NE7       30.13F
WIS RAPIDS     CLOUDY    39  31  72 E6        30.14F WCI  35
MARSHFIELD     CLOUDY    40  33  76 E6        30.12F
RICE LAKE      CLOUDY    39  32  76 N7        30.16F WCI  34
$$

...NORTHEAST IOWA...


CITY           SKY/WX    TMP DP  RH WIND       PRES   REMARKS
WATERLOO       CLOUDY    44  40  85 E9        30.00F
DUBUQUE        MOCLDY    43  39  86 E10       30.03F
DECORAH        MOCLDY    43  39  87 E8        30.05F
MASON CITY     CLOUDY    44  39  82 E12       30.02F
CHARLES CITY   CLOUDY    45  41  87 E9        30.03F
OELWEIN        CLOUDY    45  43  93 NE12      30.01F
$$

...ELSEWHERE IN IOWA...


CITY           SKY/WX    TMP DP  RH WIND       PRES   REMARKS
DES MOINES     DRIZZLE   47  40  76 E14       29.91F
IOWA CITY      CLOUDY    47  41  80 E12       29.99F
FORT DODGE     CLOUDY    45  37  76 E14       29.97F
MARSHALLTOWN   CLOUDY    45  40  82 E15       29.97F
CEDAR RAPIDS   CLOUDY    45  42  89 E18       29.96F
$$

...NORTHERN ILLINOIS...


CITY           SKY/WX    TMP DP  RH WIND       PRES   REMARKS
CHICAGO-OHARE  CLOUDY    43  38  82 NE8       30.07S
CHICAGO-MIDWAY CLOUDY    45  39  79 NE7       30.06S
MOLINE         CLOUDY    47  40  76 E15       29.99F
ROCKFORD       CLOUDY    44  38  79 E10       30.08F
PEORIA         CLOUDY    47  41  80 E13       29.99F
$$

NOTE: "FAIR" INDICATES FEW OR NO CLOUDS BELOW 12,000 FEET WITH NO
SIGNIFICANT WEATHER AND/OR OBSTRUCTIONS TO VISIBILITY. WIND
SPEEDS ARE IN MILES-PER-HOUR.




USA.gov is the U.S. government's official web portal to all federal, state and local government web resources and services.